#timestamp,LO_Frequency,Hit,StdDev 
1628474415.7,286047000.6,N
1628474435.6,286046999.7,N
1628474455.4,286047002.8,N
1628474475.2,286047003.9,N
1628474495.1,286047001.3,N
1628474496.0,286047001.3,N
1628474515.8,286047004.0,N
1628474535.6,286047004.0,N
1628474555.5,286047002.2,N
1628474575.3,286046999.8,N
1628474595.2,286046999.7,N
1628474615.9,286047002.7,N
1628474635.7,286047000.6,N
1628474655.6,286046998.3,N
1628474675.4,286046998.6,N
1628474695.2,286046999.7,N
1628474715.1,286047000.5,N
1628474716.0,286047000.5,N
1628474735.8,286047002.5,N
1628474755.7,286046999.7,N
1628474775.5,286047002.0,N
1628474795.3,286047001.4,N
1628474815.2,286047003.5,N
1628474835.0,286047003.0,N
1628474835.9,286047003.0,N
1628474855.7,286047004.2,N
1628474875.6,286047001.3,N
1628474895.4,286047002.6,N
1628474915.3,286047001.8,N
1628474935.1,286047001.7,N
1628474936.0,286047001.7,N
1628474955.8,286047002.6,N
1628474975.7,286047002.5,N
1628474995.5,286047000.1,N
1628475015.3,286046999.7,N
1628475035.2,286047000.0,N
1628475055.0,286046999.8,N
1628475055.9,286046999.8,N
1628475075.8,286046999.8,N
1628475095.6,286047002.8,N
1628475115.5,286047001.3,N
1628475135.9,286047001.6,N
1628475155.7,286047004.3,N
1628475175.6,286047002.0,N
1628475195.4,286047001.6,N
1628475215.2,286047004.2,Y
1628475235.1,286047002.0,P
1628475236.0,286047002.0,P
1628475255.8,286047000.2,N
1628475275.7,286047000.5,N
1628475295.5,286046998.1,N
1628475315.3,286047000.4,N
1628475335.2,286047000.6,N
1628475355.0,286046999.9,N
1628475355.9,286046999.9,N
1628475375.8,286047000.6,N
1628475395.6,286047000.4,N
1628475415.4,286047000.0,N
1628475435.3,286046999.8,N
1628475455.1,286047000.1,N
1628475475.8,286047000.5,N
1628475495.7,286047000.4,N
1628475515.5,286047002.3,N
1628475535.4,286047004.1,Y
1628475555.2,286047002.6,P
1628475575.0,286047001.9,N
1628475575.9,286047001.9,N
1628475595.8,286047003.8,Y
1628475615.6,286047001.6,P
1628475635.4,286047001.6,P
1628475655.3,286047002.5,P
1628475675.1,286047006.0,Y
1628475695.9,286047001.6,P
1628475715.7,286047001.4,P
1628475735.5,286047004.1,P
1628475755.4,286047003.7,Y
1628475775.2,286047002.4,P
1628475795.1,286047002.0,P
1628475796.0,286047002.0,P
1628475815.8,286047002.2,Y
1628475835.6,286047000.9,P
1628475855.5,286047000.8,N
1628475875.3,286046998.1,P
1628475895.1,286047000.9,N
1628475915.9,286047000.9,N
1628475935.9,286046998.2,N
1628475955.7,286046998.3,N
1628475975.6,286046998.9,N
1628475995.4,286047001.2,N
1628476015.2,286046998.1,N
1628476035.1,286047000.6,N
1628476036.0,286047000.6,N
1628476055.8,286047001.2,N
1628476075.6,286047001.0,N
1628476095.5,286047000.6,N
1628476115.3,286047000.4,N
1628476135.2,286046999.2,N
1628476155.9,286046996.8,N
1628476175.7,286046997.7,N
1628476195.6,286046997.5,N
1628476215.4,286046996.8,N
1628476235.2,286046998.0,N
1628476255.1,286046995.3,N
1628476256.0,286046995.3,N
1628476275.8,286046995.0,N
1628476295.7,286046995.1,N
1628476315.5,286046995.7,N
1628476335.3,286046996.3,N
1628476355.2,286046993.9,N
1628476375.4,286046993.4,N
1628476395.2,286046996.3,N
1628476415.1,286046996.0,N
1628476416.0,286046996.0,N
1628476435.8,286046994.1,N
1628476455.6,286046994.4,N
1628476505.5,286046992.6,E
1628476515.4,286046995.0,N
1628476535.3,286046998.3,P
1628476555.1,286047001.2,N
1628476556.0,286047001.2,N
1628476575.8,286046999.0,N
1628476595.7,286046998.8,N
1628476615.5,286046998.5,N
1628476635.3,286047000.8,N
1628476655.2,286046999.4,N
1628476675.0,286046998.2,N
1628476675.9,286046998.2,N
1628476695.8,286046998.9,N
1628476715.6,286047000.6,N
1628476735.4,286047000.3,N
1628476755.3,286047001.2,N
1628476775.1,286046998.4,N
1628476795.8,286046998.5,N
1628476815.7,286046998.3,N
1628476835.5,286046999.4,N
1628476855.4,286046998.8,N
1628476875.2,286046999.3,N
1628476895.0,286046998.8,N
1628476895.9,286046998.8,N
1628476915.8,286047001.1,N
1628476935.6,286046998.7,N
1628476955.5,286047000.8,N
1628476975.3,286046999.0,N
1628476995.1,286046998.7,N
1628477015.9,286046998.3,N
1628477035.7,286046998.2,N
1628477055.6,286047001.1,N
1628477075.4,286046999.5,N
1628477095.2,286046998.9,N
1628477115.1,286047001.2,N
1628477116.0,286047001.2,N
1628477135.8,286046999.3,N
1628477155.6,286046998.2,N
1628477175.5,286047000.9,N
1628477195.3,286046998.5,N
1628477215.2,286046998.7,N
1628477235.9,286047001.2,N
1628477255.7,286046998.7,N
1628477275.6,286046998.7,N
1628477295.4,286046999.4,N
1628477315.2,286046996.7,Y
1628477335.1,286047001.2,P
1628477336.0,286047001.2,N
1628477355.8,286046998.3,N
1628477375.7,286046998.9,N
1628477395.5,286046998.5,N
1628477415.3,286046999.5,N
1628477435.2,286046998.2,N
1628477455.0,286046998.4,N
1628477455.9,286046998.4,N
1628477475.8,286046999.3,N
1628477495.6,286046998.9,N
1628477515.4,286046998.6,N
1628477535.3,286047001.2,N
1628477555.1,286046998.2,N
1628477575.9,286047000.7,N
1628477595.7,286047000.1,N
1628477615.5,286047000.0,N
1628477635.4,286047000.4,N
1628477655.2,286047000.9,N
1628477675.0,286047000.5,N
1628477675.9,286047000.5,N
1628477695.8,286046999.0,N
1628477715.6,286046998.7,N
1628477735.5,286047001.2,N
1628477755.3,286047000.5,N
1628477775.1,286047000.1,N
1628477795.9,286047001.6,N
1628477815.7,286047002.6,N
1628477835.5,286047000.1,N
1628477855.0,286046999.9,N
1628477855.9,286046999.9,N
1628477875.7,286047000.1,N
1628477895.6,286047002.4,N
1628477915.4,286047002.3,N
1628477935.3,286047000.7,N
1628477955.1,286047000.5,N
1628477975.8,286047000.6,N
1628477995.7,286047000.5,N
